Location: Bli��� Lhota
(48.7570°N, 14.0120°E)
Time: 06:29:29
(UTC+00:00)

Sich 1 Rocket - Pass Details

Date: 18 September 2020
Orbit: 616 x 652 km, 82.5° (Epoch: 27 October)

Event Time Altitude Azimuth Distance (km) Brightness Sun altitude
Rises 17:43:12 0° 164° (SSE) 2,916 6.8 -6.3°
Reaches altitude 10° 17:45:33 10° 156° (SSE) 2,019 5.9 -6.7°
Maximum altitude 17:49:37 35° 91° (E) 1,040 4.2 -7.4°
Drops below altitude 10° 17:53:45 10° 26° (NNE) 2,054 6.1 -8.0°
Sets 17:56:09 0° 17° (NNE) 2,975 7.0 -8.4°
